KF5CME Weather Reports


Display with metric or nautical units.
time (UTC)temp
F
wind
direction
speed
MPH
gust
MPH
rain 1hr
in
rain 24hr
in
rain mn
in
humidity
%
barometer
mb
20260505124543 71 177 1.0 4.0 0.00 0.00 0.00 83 1005.3
20260505124021 70 0 1.0 8.0 0.00 0.00 0.00 83 1005.3
20260505123523 70 323 1.0 8.0 0.00 0.00 0.00 83 1005.1
20260505123049 70 238 1.0 4.0 0.00 0.00 0.00 83 1005.1
20260505122519 70 104 1.0 4.0 0.00 0.00 0.00 83 1005.1
20260505122022 70 198 1.0 8.0 0.00 0.00 0.00 83 1005.0
20260505121612 70 298 0.0 8.0 0.00 0.00 0.00 83 1004.9
20260505121021 70 0 1.0 8.0 0.00 0.00 0.00 83 1004.9
20260505120522 70 265 1.0 4.0 0.00 0.00 0.00 83 1004.7
20260505120037 70 260 1.0 5.0 0.00 0.00 0.00 83 1004.9
20260505115522 70 270 1.0 5.0 0.00 0.00 0.00 83 1004.7
20260505115020 70 253 2.0 5.0 0.00 0.00 0.00 83 1004.6
20260505114541 70 243 1.0 7.0 0.00 0.00 0.00 83 1004.6
20260505114020 70 253 1.0 7.0 0.00 0.00 0.00 83 1004.4
20260505113520 70 113 2.0 11.0 0.00 0.00 0.00 83 1004.5
20260505113038 70 28 2.0 11.0 0.00 0.00 0.00 83 1004.6
20260505112520 70 269 2.0 11.0 0.00 0.00 0.00 83 1004.4
20260505112019 70 192 1.0 4.0 0.00 0.00 0.00 83 1004.3
20260505111540 70 275 1.0 4.0 0.00 0.00 0.00 83 1004.3
20260505111022 70 210 1.0 7.0 0.00 0.00 0.00 83 1004.4
20260505110522 70 311 1.0 7.0 0.00 0.00 0.00 82 1004.5
20260505102019 70 78 1.0 4.0 0.00 0.00 0.00 82 1004.6
20260505101542 70 333 1.0 4.0 0.00 0.00 0.00 82 1004.6
20260505101023 70 223 1.0 5.0 0.00 0.00 0.00 82 1004.7
20260505100520 70 228 2.0 5.0 0.00 0.00 0.00 82 1004.8
20260505100046 70 266 1.0 5.0 0.00 0.00 0.00 82 1004.7
20260505095524 70 225 2.0 6.0 0.00 0.00 0.00 82 1004.9
20260505095022 70 50 1.0 6.0 0.00 0.00 0.00 82 1004.9
20260505094541 70 252 1.0 4.0 0.00 0.00 0.00 82 1004.9
20260505094022 70 238 1.0 10.0 0.00 0.00 0.00 82 1004.9
20260505093523 70 298 2.0 10.0 0.00 0.00 0.00 82 1004.8
20260505093046 70 187 2.0 8.0 0.00 0.00 0.00 82 1004.9
20260505092522 70 265 2.0 8.0 0.00 0.00 0.00 82 1005.0
20260505092019 70 186 2.0 8.0 0.00 0.00 0.00 82 1004.9
20260505091552 70 19 2.0 9.0 0.00 0.00 0.00 82 1004.7
20260505091021 70 176 3.0 14.0 0.00 0.00 0.00 82 1004.8
20260505090522 70 246 2.0 14.0 0.00 0.00 0.00 82 1004.6
20260505090053 70 202 2.0 14.0 0.00 0.00 0.00 83 1004.7
20260505085522 70 215 2.0 8.0 0.00 0.00 0.00 82 1004.8
20260505085024 70 254 2.0 8.0 0.00 0.00 0.00 83 1004.8
20260505084538 70 302 2.0 7.0 0.00 0.00 0.00 83 1004.7
20260505084019 70 256 1.0 5.0 0.00 0.00 0.00 83 1004.7
20260505083522 69 202 2.0 7.0 0.00 0.00 0.00 83 1004.8
20260505083047 69 202 2.0 7.0 0.00 0.00 0.00 83 1004.7
20260505082523 69 162 2.0 7.0 0.00 0.00 0.00 83 1004.7
20260505082020 69 158 2.0 8.0 0.00 0.00 0.00 82 1004.7
20260505081542 69 253 2.0 8.0 0.00 0.00 0.00 82 1004.8
20260505081020 69 215 2.0 6.0 0.00 0.00 0.00 82 1004.8
20260505080521 69 215 1.0 4.0 0.00 0.00 0.00 82 1004.9
20260505080045 69 210 2.0 7.0 0.00 0.00 0.00 82 1005.0
20260505075520 69 0 1.0 7.0 0.00 0.00 0.00 82 1005.2
20260505075020 69 232 1.0 4.0 0.00 0.00 0.00 82 1005.1
20260505074534 70 261 1.0 5.0 0.00 0.00 0.00 81 1005.2
20260505074025 70 253 2.0 10.0 0.00 0.00 0.00 81 1005.3
20260505073520 70 287 1.0 10.0 0.00 0.00 0.00 81 1005.3
20260505073050 70 185 2.0 8.0 0.00 0.00 0.00 81 1005.3
20260505072519 70 276 2.0 11.0 0.00 0.00 0.00 81 1005.3
20260505072016 70 237 2.0 11.0 0.00 0.00 0.00 80 1005.3
20260505071543 70 249 2.0 10.0 0.00 0.00 0.00 80 1005.3
20260505071022 70 245 2.0 6.0 0.00 0.00 0.00 80 1005.5
20260505070521 70 327 2.0 7.0 0.00 0.00 0.00 80 1005.5
20260505070038 70 316 2.0 12.0 0.00 0.00 0.00 79 1005.4
20260505065517 70 210 1.0 12.0 0.00 0.00 0.00 79 1005.5
20260505065020 70 269 2.0 8.0 0.00 0.00 0.00 79 1005.4
20260505064537 70 268 2.0 6.0 0.00 0.00 0.00 79 1005.6
20260505064020 70 86 2.0 7.0 0.00 0.00 0.00 79 1005.7
20260505063519 71 0 1.0 7.0 0.00 0.00 0.00 79 1005.7
20260505063046 71 315 1.0 7.0 0.00 0.00 0.00 78 1005.7
20260505062522 71 210 1.0 5.0 0.00 0.00 0.00 78 1005.9
20260505062026 71 227 1.0 5.0 0.00 0.00 0.00 78 1005.8
20260505061541 71 233 2.0 5.0 0.00 0.00 0.00 78 1006.0
20260505061026 71 348 1.0 9.0 0.00 0.00 0.00 77 1005.9
20260505060522 71 245 2.0 9.0 0.00 0.00 0.00 77 1005.9
20260505060042 71 31 1.0 5.0 0.00 0.00 0.00 77 1005.9
20260505055520 71 74 1.0 6.0 0.00 0.00 0.00 77 1006.1
20260505055022 71 196 2.0 6.0 0.00 0.00 0.00 76 1006.1
20260505054609 71 180 1.0 6.0 0.00 0.00 0.00 76 1006.1
20260505054022 71 156 2.0 6.0 0.00 0.00 0.00 76 1006.2
20260505053521 71 215 2.0 7.0 0.00 0.00 0.00 76 1006.2
20260505053045 72 256 2.0 7.0 0.00 0.00 0.00 76 1006.3
20260505052522 72 202 2.0 9.0 0.00 0.00 0.00 75 1006.4
20260505052024 72 191 2.0 9.0 0.00 0.00 0.00 75 1006.4
20260505051542 72 161 1.0 7.0 0.00 0.00 0.00 75 1006.4
20260505051021 72 220 2.0 8.0 0.00 0.00 0.00 75 1006.5
20260505050525 72 189 1.0 8.0 0.00 0.00 0.00 74 1006.5
20260505041548 71 29 1.0 5.0 0.00 0.00 0.00 73 1006.7
20260505041019 71 263 1.0 3.0 0.00 0.00 0.00 74 1006.7
20260505040520 71 352 1.0 3.0 0.00 0.00 0.00 74 1006.6
20260505040042 71 166 1.0 4.0 0.00 0.00 0.00 74 1006.6
20260505035524 71 232 1.0 4.0 0.00 0.00 0.00 73 1006.6
20260505035022 71 7 0.0 6.0 0.00 0.00 0.00 73 1006.6
20260505034537 71 231 1.0 6.0 0.00 0.00 0.00 73 1006.7
20260505034025 71 129 1.0 3.0 0.00 0.00 0.00 73 1006.8
20260505033519 71 215 1.0 4.0 0.00 0.00 0.00 72 1006.9
20260505033041 72 192 0.0 4.0 0.00 0.00 0.00 72 1006.9
20260505032522 72 215 1.0 4.0 0.00 0.00 0.00 71 1006.9
20260505032019 72 215 0.0 2.0 0.00 0.00 0.00 71 1006.9
20260505031543 72 202 0.0 2.0 0.00 0.00 0.00 71 1006.9
20260505031022 72 171 0.0 2.0 0.00 0.00 0.00 71 1007.0
20260505030519 72 0 0.0 2.0 0.00 0.00 0.00 71 1007.1
20260505030056 72 0 0.0 2.0 0.00 0.00 0.00 70 1007.0
20260505025524 72 198 0.0 3.0 0.00 0.00 0.00 70 1006.9
20260505025020 72 0 0.0 3.0 0.00 0.00 0.00 70 1006.8
20260505024537 72 167 0.0 4.0 0.00 0.00 0.00 70 1006.9
20260505024022 72 175 1.0 4.0 0.00 0.00 0.00 69 1006.7
20260505023521 73 192 0.0 3.0 0.00 0.00 0.00 69 1006.7
20260505023037 73 184 0.0 3.0 0.00 0.00 0.00 69 1006.6
20260505022523 73 154 1.0 3.0 0.00 0.00 0.00 68 1006.8
20260505022022 73 193 0.0 2.0 0.00 0.00 0.00 68 1006.7
20260505021550 73 79 0.0 3.0 0.00 0.00 0.00 68 1006.7
20260505021022 73 0 0.0 3.0 0.00 0.00 0.00 68 1006.7
20260505020519 73 183 0.0 3.0 0.00 0.00 0.00 67 1006.8
20260505020052 73 255 1.0 3.0 0.00 0.00 0.00 67 1006.6
20260505015520 73 228 0.0 6.0 0.00 0.00 0.00 67 1006.7
20260505015023 73 188 1.0 6.0 0.00 0.00 0.00 67 1006.7
20260505014540 74 215 1.0 2.0 0.00 0.00 0.00 67 1006.7
20260505014021 74 186 0.0 3.0 0.00 0.00 0.00 67 1006.6
20260505013521 74 170 0.0 3.0 0.00 0.00 0.00 66 1006.8
20260505013037 74 286 1.0 3.0 0.00 0.00 0.00 66 1006.7
20260505012521 74 0 1.0 7.0 0.00 0.00 0.00 66 1006.7
20260505012023 74 322 1.0 7.0 0.00 0.00 0.00 65 1006.7
20260505011537 74 198 1.0 4.0 0.00 0.00 0.00 65 1006.7
20260505011022 74 167 0.0 4.0 0.00 0.00 0.00 65 1006.6
20260505010519 75 197 1.0 4.0 0.00 0.00 0.00 64 1006.7
20260505010059 75 234 1.0 3.0 0.00 0.00 0.00 64 1006.7
20260505005519 75 265 1.0 6.0 0.00 0.00 0.00 64 1006.4
20260505005021 75 187 1.0 6.0 0.00 0.00 0.00 63 1006.5
20260505004539 75 221 1.0 6.0 0.00 0.00 0.00 63 1006.7
20260505004019 76 136 1.0 8.0 0.00 0.00 0.00 62 1006.6
20260505003518 76 228 1.0 8.0 0.00 0.00 0.00 62 1006.7
20260505003047 76 0 1.0 5.0 0.00 0.00 0.00 61 1006.8
20260505002522 76 0 0.0 7.0 0.00 0.00 0.00 61 1006.8
20260505002019 77 202 1.0 7.0 0.00 0.00 0.00 61 1006.7
20260505001540 77 0 1.0 6.0 0.00 0.00 0.00 60 1006.7
20260505001023 77 215 1.0 4.0 0.00 0.00 0.00 60 1006.7
20260505000521 77 223 0.0 4.0 0.00 0.00 0.00 59 1006.9
20260505000043 77 210 1.0 7.0 0.00 0.00 0.00 59 1006.8
20260504235522 77 250 2.0 7.0 0.00 0.00 0.00 58 1006.9
20260504235022 77 225 1.0 5.0 0.00 0.00 0.00 59 1006.8
20260504234545 78 172 2.0 5.0 0.00 0.00 0.00 58 1006.8
20260504234022 78 187 1.0 6.0 0.00 0.00 0.00 59 1006.9
20260504233519 78 230 1.0 7.0 0.00 0.00 0.00 57 1006.9
20260504233049 78 256 2.0 7.0 0.00 0.00 0.00 56 1007.0
20260504232522 78 194 1.0 9.0 0.00 0.00 0.00 55 1007.0
20260504232022 79 170 2.0 9.0 0.00 0.00 0.00 55 1007.1
20260504231538 79 78 1.0 8.0 0.00 0.00 0.00 55 1007.2
20260504231018 79 314 2.0 8.0 0.00 0.00 0.00 54 1007.2
20260504230525 79 210 2.0 8.0 0.00 0.00 0.00 54 1007.3
20260504230046 80 125 2.0 7.0 0.00 0.00 0.00 54 1007.3
20260504225523 80 331 1.0 7.0 0.00 0.00 0.00 53 1007.3
20260504225019 80 254 2.0 7.0 0.00 0.00 0.00 53 1007.2
20260504224550 80 175 1.0 5.0 0.00 0.00 0.00 52 1007.2
20260504224018 80 174 2.0 7.0 0.00 0.00 0.00 53 1007.4
20260504223519 80 83 1.0 7.0 0.00 0.00 0.00 52 1007.3
20260504223039 80 197 2.0 7.0 0.00 0.00 0.00 53 1007.4
20260504222522 80 175 2.0 9.0 0.00 0.00 0.00 52 1007.3
20260504222023 80 130 2.0 9.0 0.00 0.00 0.00 52 1007.4
20260504221539 80 184 2.0 8.0 0.00 0.00 0.00 51 1007.6
20260504221024 80 215 2.0 8.0 0.00 0.00 0.00 52 1007.6
20260504220519 80 259 1.0 5.0 0.00 0.00 0.00 52 1007.7
20260504220040 80 190 2.0 5.0 0.00 0.00 0.00 51 1007.6
20260504215524 80 259 2.0 5.0 0.00 0.00 0.00 52 1007.8
20260504215022 80 246 2.0 7.0 0.00 0.00 0.00 51 1007.9
20260504214547 80 144 1.0 7.0 0.00 0.00 0.00 52 1007.9
20260504214022 80 96 2.0 8.0 0.00 0.00 0.00 49 1008.0
20260504213518 80 119 2.0 8.0 0.00 0.00 0.00 50 1008.1
20260504213040 80 271 2.0 5.0 0.00 0.00 0.00 49 1008.1
20260504212520 80 153 1.0 6.0 0.00 0.00 0.00 49 1008.2
20260504212019 80 235 1.0 6.0 0.00 0.00 0.00 49 1008.3
20260504211538 80 336 1.0 6.0 0.00 0.00 0.00 49 1008.3
20260504211022 80 200 2.0 8.0 0.00 0.00 0.00 49 1008.3
20260504210522 81 242 2.0 8.0 0.00 0.00 0.00 47 1008.5
20260504210052 81 135 2.0 7.0 0.00 0.00 0.00 46 1008.5
20260504205522 81 84 1.0 10.0 0.00 0.00 0.00 47 1008.8
20260504205026 81 252 3.0 10.0 0.00 0.00 0.00 45 1008.7
20260504204546 81 329 2.0 13.0 0.00 0.00 0.00 45 1008.8
20260504204021 81 156 3.0 13.0 0.00 0.00 0.00 44 1009.0
20260504203521 82 269 2.0 7.0 0.00 0.00 0.00 46 1009.1
20260504203042 81 229 1.0 7.0 0.00 0.00 0.00 47 1009.3
20260504202522 81 254 2.0 7.0 0.00 0.00 0.00 45 1009.5
20260504202019 81 116 2.0 7.0 0.00 0.00 0.00 44 1009.5
20260504201544 81 159 2.0 12.0 0.00 0.00 0.00 44 1009.6
20260504201021 81 225 1.0 12.0 0.00 0.00 0.00 46 1009.7
20260504200522 80 183 2.0 12.0 0.00 0.00 0.00 44 1009.8
20260504200050 80 347 2.0 7.0 0.00 0.00 0.00 46 1009.9
20260504195521 80 180 2.0 10.0 0.00 0.00 0.00 45 1009.9
20260504195019 80 188 2.0 13.0 0.00 0.00 0.00 46 1010.1
20260504194539 80 226 2.0 13.0 0.00 0.00 0.00 45 1010.0
20260504194022 80 215 3.0 8.0 0.00 0.00 0.00 43 1010.1
20260504193524 80 102 2.0 10.0 0.00 0.00 0.00 45 1010.2
20260504193042 80 202 2.0 10.0 0.00 0.00 0.00 45 1010.4
20260504192521 80 215 2.0 6.0 0.00 0.00 0.00 45 1010.7
20260504192018 80 202 1.0 9.0 0.00 0.00 0.00 45 1010.6
20260504191538 80 198 2.0 9.0 0.00 0.00 0.00 44 1010.6
20260504191023 80 242 2.0 9.0 0.00 0.00 0.00 44 1010.7
20260504190522 79 252 2.0 9.0 0.00 0.00 0.00 46 1010.8
20260504190040 79 273 2.0 9.0 0.00 0.00 0.00 45 1010.8
20260504185517 79 230 3.0 9.0 0.00 0.00 0.00 45 1010.7
20260504185022 79 0 1.0 8.0 0.00 0.00 0.00 47 1010.8
20260504184540 79 190 2.0 6.0 0.00 0.00 0.00 45 1010.9
20260504184021 78 332 2.0 10.0 0.00 0.00 0.00 47 1010.9
20260504183520 78 304 2.0 10.0 0.00 0.00 0.00 47 1011.2
20260504183038 78 197 2.0 7.0 0.00 0.00 0.00 45 1011.2
20260504182521 78 276 2.0 7.0 0.00 0.00 0.00 45 1011.3
20260504182021 78 36 2.0 7.0 0.00 0.00 0.00 45 1011.3
20260504181538 78 192 2.0 11.0 0.00 0.00 0.00 45 1011.4
20260504181022 78 232 3.0 11.0 0.00 0.00 0.00 46 1011.4
20260504180521 77 79 2.0 6.0 0.00 0.00 0.00 48 1011.5
20260504180037 77 264 2.0 6.0 0.00 0.00 0.00 46 1011.5
20260504175600 77 281 2.0 6.0 0.00 0.00 0.00 47 1011.9
20260504175019 77 238 1.0 12.0 0.00 0.00 0.00 46 1011.8
20260504174539 77 156 2.0 12.0 0.00 0.00 0.00 46 1011.9
20260504174023 76 192 3.0 9.0 0.00 0.00 0.00 46 1012.1
20260504173524 76 313 2.0 6.0 0.00 0.00 0.00 47 1012.1
20260504173039 76 232 3.0 6.0 0.00 0.00 0.00 47 1012.2
20260504172521 76 219 2.0 9.0 0.00 0.00 0.00 46 1012.3
20260504172022 76 79 3.0 9.0 0.00 0.00 0.00 46 1012.5
20260504171538 76 229 2.0 9.0 0.00 0.00 0.00 46 1012.5
20260504171020 75 179 1.0 5.0 0.00 0.00 0.00 48 1012.5
20260504170521 75 244 2.0 6.0 0.00 0.00 0.00 48 1012.7
20260504151021 70 240 2.0 6.0 0.00 0.00 0.00 60 1013.7
20260504150519 70 179 1.0 9.0 0.00 0.00 0.00 62 1013.6
20260504141022 65 286 1.0 6.0 0.00 0.00 0.00 71 1014.0
20260504140521 65 160 1.0 6.0 0.00 0.00 0.00 71 1014.0
20260504130521 60 202 1.0 6.0 0.00 0.00 0.00 79 1014.0